Time,TemperatureF,DewpointF,PressureIn,WindDirection,WindDirectionDegrees,WindSpeedMPH,WindSpeedGustMPH,Humidity,HourlyPrecipIn,Conditions,Clouds,dailyrainin,SoftwareType,DateUTC
2013-12-13 00:08:00,18.9,15.0,30.14,WSW,240,9.0,9.0,85,0.00,,,0.00,weatherlink.com 1.10,2013-12-13 05:08:00,
2013-12-13 00:23:00,19.3,16.0,30.14,WSW,239,5.0,12.0,85,0.00,,,0.00,weatherlink.com 1.10,2013-12-13 05:23:00,
2013-12-13 00:38:00,19.8,16.0,30.14,WSW,242,7.0,10.0,84,0.00,,,0.00,weatherlink.com 1.10,2013-12-13 05:38:00,
2013-12-13 00:53:00,20.4,16.0,30.14,SW,236,12.0,12.0,83,0.00,,,0.00,weatherlink.com 1.10,2013-12-13 05:53:00,
2013-12-13 01:08:00,20.6,16.0,30.13,WSW,243,11.0,12.0,82,0.00,,,0.00,weatherlink.com 1.10,2013-12-13 06:08:00,
2013-12-13 01:24:00,20.5,16.0,30.13,WSW,246,8.0,13.0,82,0.00,,,0.00,weatherlink.com 1.10,2013-12-13 06:24:00,
2013-12-13 01:39:00,20.6,16.0,30.13,West,262,8.0,11.0,82,0.00,,,0.00,weatherlink.com 1.10,2013-12-13 06:39:00,
2013-12-13 01:54:00,20.7,16.0,30.13,WSW,240,8.0,10.0,82,0.00,,,0.00,weatherlink.com 1.10,2013-12-13 06:54:00,
2013-12-13 02:09:00,20.8,16.0,30.14,West,259,9.0,11.0,81,0.00,,,0.00,weatherlink.com 1.10,2013-12-13 07:09:00,
2013-12-13 02:24:00,21.0,16.0,30.14,West,276,8.0,11.0,81,0.00,,,0.00,weatherlink.com 1.10,2013-12-13 07:24:00,
2013-12-13 02:39:00,21.2,16.0,30.14,West,281,10.0,15.0,81,0.00,,,0.00,weatherlink.com 1.10,2013-12-13 07:39:00,
2013-12-13 02:54:00,21.3,16.0,30.14,WSW,249,7.0,10.0,81,0.00,,,0.00,weatherlink.com 1.10,2013-12-13 07:54:00,
2013-12-13 03:09:00,21.4,16.0,30.14,WSW,245,9.0,12.0,81,0.00,,,0.00,weatherlink.com 1.10,2013-12-13 08:09:00,
2013-12-13 03:24:00,21.6,17.0,30.15,WSW,248,5.0,11.0,81,0.00,,,0.00,weatherlink.com 1.10,2013-12-13 08:24:00,
2013-12-13 03:39:00,21.7,16.0,30.15,West,279,6.0,15.0,80,0.00,,,0.00,weatherlink.com 1.10,2013-12-13 08:39:00,
2013-12-13 03:54:00,21.8,17.0,30.15,WSW,250,7.0,12.0,80,0.00,,,0.00,weatherlink.com 1.10,2013-12-13 08:54:00,
2013-12-13 04:09:00,21.6,17.0,30.15,WNW,287,7.0,11.0,82,0.00,,,0.00,weatherlink.com 1.10,2013-12-13 09:09:00,
2013-12-13 04:24:00,21.5,17.0,30.15,West,269,4.0,9.0,83,0.00,,,0.00,weatherlink.com 1.10,2013-12-13 09:24:00,
2013-12-13 04:39:00,21.4,17.0,30.15,WSW,258,3.0,10.0,84,0.00,,,0.00,weatherlink.com 1.10,2013-12-13 09:39:00,
2013-12-13 04:54:00,21.2,17.0,30.15,West,264,3.0,10.0,85,0.00,,,0.00,weatherlink.com 1.10,2013-12-13 09:54:00,
2013-12-13 05:10:00,21.2,17.0,30.15,West,270,4.0,8.0,85,0.00,,,0.00,weatherlink.com 1.10,2013-12-13 10:10:00,
2013-12-13 05:25:00,21.1,17.0,30.16,WSW,243,3.0,7.0,85,0.00,,,0.00,weatherlink.com 1.10,2013-12-13 10:25:00,
2013-12-13 05:40:00,21.2,17.0,30.16,WSW,242,10.0,10.0,85,0.00,,,0.00,weatherlink.com 1.10,2013-12-13 10:40:00,
2013-12-13 05:55:00,21.1,17.0,30.17,WSW,252,6.0,8.0,85,0.00,,,0.00,weatherlink.com 1.10,2013-12-13 10:55:00,
2013-12-13 06:10:00,21.0,18.0,30.18,WSW,245,6.0,12.0,86,0.00,,,0.00,weatherlink.com 1.10,2013-12-13 11:10:00,
2013-12-13 06:25:00,20.7,17.0,30.18,NW,306,3.0,9.0,87,0.00,,,0.00,weatherlink.com 1.10,2013-12-13 11:25:00,
2013-12-13 06:40:00,20.6,18.0,30.18,West,278,1.0,6.0,88,0.00,,,0.00,weatherlink.com 1.10,2013-12-13 11:40:00,
2013-12-13 06:55:00,20.5,18.0,30.19,NW,318,3.0,6.0,89,0.00,,,0.00,weatherlink.com 1.10,2013-12-13 11:55:00,
2013-12-13 07:10:00,20.3,18.0,30.19,WNW,291,6.0,7.0,90,0.00,,,0.00,weatherlink.com 1.10,2013-12-13 12:10:00,
2013-12-13 07:25:00,20.2,17.0,30.20,WNW,286,4.0,9.0,86,0.00,,,0.00,weatherlink.com 1.10,2013-12-13 12:25:00,
2013-12-13 07:40:00,20.0,16.0,30.20,NW,311,3.0,11.0,83,0.00,,,0.00,weatherlink.com 1.10,2013-12-13 12:40:00,
2013-12-13 07:55:00,20.0,15.0,30.21,WNW,290,3.0,9.0,82,0.00,,,0.00,weatherlink.com 1.10,2013-12-13 12:55:00,
2013-12-13 08:10:00,20.0,16.0,30.22,WNW,297,3.0,8.0,83,0.00,,,0.00,weatherlink.com 1.10,2013-12-13 13:10:00,
2013-12-13 08:25:00,20.0,16.0,30.23,WNW,292,4.0,12.0,83,0.00,,,0.00,weatherlink.com 1.10,2013-12-13 13:25:00,
2013-12-13 08:40:00,20.0,16.0,30.24,WNW,288,7.0,9.0,83,0.00,,,0.00,weatherlink.com 1.10,2013-12-13 13:40:00,
2013-12-13 08:55:00,19.9,16.0,30.24,WNW,303,6.0,9.0,83,0.00,,,0.00,weatherlink.com 1.10,2013-12-13 13:55:00,
2013-12-13 09:10:00,20.1,17.0,30.24,West,281,1.0,5.0,86,0.00,,,0.00,weatherlink.com 1.10,2013-12-13 14:10:00,
2013-12-13 09:25:00,20.1,16.0,30.24,WSW,248,3.0,9.0,85,0.00,,,0.00,weatherlink.com 1.10,2013-12-13 14:25:00,
2013-12-13 09:40:00,20.1,16.0,30.25,WNW,290,4.0,8.0,85,0.00,,,0.00,weatherlink.com 1.10,2013-12-13 14:40:00,
2013-12-13 09:55:00,20.1,16.0,30.25,NNW,328,3.0,7.0,84,0.00,,,0.00,weatherlink.com 1.10,2013-12-13 14:55:00,
2013-12-13 10:10:00,20.1,16.0,30.25,NNW,327,6.0,7.0,83,0.00,,,0.00,weatherlink.com 1.10,2013-12-13 15:10:00,
2013-12-13 10:25:00,20.4,16.0,30.25,NNW,337,4.0,6.0,82,0.00,,,0.00,weatherlink.com 1.10,2013-12-13 15:25:00,
2013-12-13 10:40:00,20.3,16.0,30.26,NNW,331,5.0,8.0,82,0.00,,,0.00,weatherlink.com 1.10,2013-12-13 15:40:00,
2013-12-13 10:55:00,20.4,16.0,30.27,NNW,340,4.0,7.0,82,0.00,,,0.00,weatherlink.com 1.10,2013-12-13 15:55:00,
2013-12-13 11:10:00,20.8,16.0,30.27,NNE,12,3.0,5.0,82,0.00,,,0.00,weatherlink.com 1.10,2013-12-13 16:10:00,
2013-12-13 11:25:00,20.7,15.0,30.26,NNW,330,2.0,6.0,80,0.00,,,0.00,weatherlink.com 1.10,2013-12-13 16:25:00,
2013-12-13 11:40:00,20.7,15.0,30.27,NNW,348,3.0,6.0,80,0.00,,,0.00,weatherlink.com 1.10,2013-12-13 16:40:00,
2013-12-13 11:55:00,20.6,15.0,30.27,North,6,7.0,7.0,79,0.00,,,0.00,weatherlink.com 1.10,2013-12-13 16:55:00,
2013-12-13 12:10:00,20.5,14.0,30.26,NNW,344,5.0,8.0,76,0.00,,,0.00,weatherlink.com 1.10,2013-12-13 17:10:00,
2013-12-13 12:25:00,20.6,16.0,30.26,NNE,23,6.0,9.0,81,0.00,,,0.00,weatherlink.com 1.10,2013-12-13 17:25:00,
2013-12-13 12:40:00,20.4,15.0,30.26,NE,40,7.0,10.0,81,0.00,,,0.00,weatherlink.com 1.10,2013-12-13 17:40:00,
2013-12-13 12:56:00,20.3,16.0,30.26,ENE,65,9.0,9.0,82,0.00,,,0.00,weatherlink.com 1.10,2013-12-13 17:56:00,
2013-12-13 13:11:00,19.8,16.0,30.25,ENE,76,13.0,13.0,85,0.00,,,0.00,weatherlink.com 1.10,2013-12-13 18:11:00,
2013-12-13 13:26:00,19.6,16.0,30.25,ENE,77,9.0,11.0,85,0.00,,,0.00,weatherlink.com 1.10,2013-12-13 18:26:00,
2013-12-13 13:41:00,19.6,15.0,30.25,ENE,67,8.0,17.0,83,0.00,,,0.00,weatherlink.com 1.10,2013-12-13 18:41:00,
2013-12-13 13:56:00,19.8,15.0,30.26,ENE,71,9.0,12.0,82,0.00,,,0.00,weatherlink.com 1.10,2013-12-13 18:56:00,
2013-12-13 14:11:00,19.9,15.0,30.25,ENE,72,9.0,11.0,80,0.00,,,0.00,weatherlink.com 1.10,2013-12-13 19:11:00,
2013-12-13 14:26:00,20.0,15.0,30.25,East,82,14.0,14.0,81,0.00,,,0.00,weatherlink.com 1.10,2013-12-13 19:26:00,
2013-12-13 14:41:00,19.8,15.0,30.26,ENE,72,8.0,12.0,81,0.00,,,0.00,weatherlink.com 1.10,2013-12-13 19:41:00,
2013-12-13 14:56:00,19.9,15.0,30.26,ENE,64,12.0,13.0,82,0.00,,,0.00,weatherlink.com 1.10,2013-12-13 19:56:00,
2013-12-13 15:11:00,19.8,15.0,30.27,ENE,65,12.0,14.0,80,0.00,,,0.00,weatherlink.com 1.10,2013-12-13 20:11:00,
2013-12-13 15:26:00,19.8,14.0,30.28,ENE,62,12.0,15.0,79,0.00,,,0.00,weatherlink.com 1.10,2013-12-13 20:26:00,
2013-12-13 15:41:00,19.8,14.0,30.28,ENE,75,11.0,14.0,79,0.00,,,0.00,weatherlink.com 1.10,2013-12-13 20:41:00,
2013-12-13 15:56:00,19.7,14.0,30.29,ENE,78,11.0,14.0,79,0.00,,,0.00,weatherlink.com 1.10,2013-12-13 20:56:00,
2013-12-13 16:11:00,19.8,14.0,30.30,ENE,72,12.0,13.0,77,0.00,,,0.00,weatherlink.com 1.10,2013-12-13 21:11:00,
2013-12-13 16:26:00,19.8,14.0,30.30,ENE,74,14.0,16.0,78,0.00,,,0.00,weatherlink.com 1.10,2013-12-13 21:26:00,
2013-12-13 16:41:00,19.7,14.0,30.30,East,79,14.0,14.0,78,0.00,,,0.00,weatherlink.com 1.10,2013-12-13 21:41:00,
2013-12-13 16:56:00,19.6,14.0,30.31,East,88,14.0,17.0,77,0.00,,,0.00,weatherlink.com 1.10,2013-12-13 21:56:00,
2013-12-13 17:11:00,19.8,13.0,30.31,ENE,77,15.0,16.0,76,0.00,,,0.00,weatherlink.com 1.10,2013-12-13 22:11:00,
2013-12-13 17:26:00,19.7,13.0,30.31,ENE,65,14.0,17.0,75,0.00,,,0.00,weatherlink.com 1.10,2013-12-13 22:26:00,
2013-12-13 17:41:00,19.8,13.0,30.31,ENE,77,14.0,18.0,76,0.00,,,0.00,weatherlink.com 1.10,2013-12-13 22:41:00,
2013-12-13 17:56:00,19.8,14.0,30.32,East,81,16.0,17.0,77,0.00,,,0.00,weatherlink.com 1.10,2013-12-13 22:56:00,
2013-12-13 18:11:00,19.7,14.0,30.32,East,95,16.0,19.0,77,0.00,,,0.00,weatherlink.com 1.10,2013-12-13 23:11:00,
2013-12-13 18:26:00,19.7,15.0,30.33,East,84,17.0,18.0,81,0.00,,,0.00,weatherlink.com 1.10,2013-12-13 23:26:00,
2013-12-13 18:41:00,19.5,14.0,30.33,East,79,18.0,19.0,79,0.00,,,0.00,weatherlink.com 1.10,2013-12-13 23:41:00,
2013-12-13 18:57:00,19.3,14.0,30.33,ENE,73,19.0,22.0,80,0.00,,,0.00,weatherlink.com 1.10,2013-12-13 23:57:00,
2013-12-13 19:11:00,19.4,14.0,30.32,ENE,77,20.0,22.0,80,0.00,,,0.00,weatherlink.com 1.10,2013-12-14 00:11:00,
2013-12-13 19:26:00,19.3,14.0,30.33,ENE,63,22.0,23.0,79,0.00,,,0.00,weatherlink.com 1.10,2013-12-14 00:26:00,
2013-12-13 19:41:00,19.4,14.0,30.33,NE,51,21.0,24.0,79,0.00,,,0.00,weatherlink.com 1.10,2013-12-14 00:41:00,
2013-12-13 19:56:00,17.6,13.0,30.35,NE,49,26.0,26.0,82,0.00,,,0.00,weatherlink.com 1.10,2013-12-14 00:56:00,
2013-12-13 20:11:00,17.0,13.0,30.35,ENE,57,24.0,26.0,83,0.00,,,0.00,weatherlink.com 1.10,2013-12-14 01:11:00,
2013-12-13 20:27:00,16.6,13.0,30.36,NE,42,25.0,25.0,84,0.00,,,0.00,weatherlink.com 1.10,2013-12-14 01:27:00,
2013-12-13 20:42:00,15.7,12.0,30.37,NE,50,21.0,26.0,85,0.00,,,0.00,weatherlink.com 1.10,2013-12-14 01:42:00,
2013-12-13 20:57:00,14.9,12.0,30.38,NE,50,20.0,24.0,86,0.00,,,0.00,weatherlink.com 1.10,2013-12-14 01:57:00,
2013-12-13 21:12:00,14.7,11.0,30.38,NE,42,20.0,24.0,86,0.00,,,0.00,weatherlink.com 1.10,2013-12-14 02:12:00,
2013-12-13 21:27:00,14.7,11.0,30.38,NE,46,26.0,26.0,85,0.00,,,0.00,weatherlink.com 1.10,2013-12-14 02:27:00,
2013-12-13 21:42:00,14.4,10.0,30.38,NE,36,24.0,26.0,83,0.00,,,0.00,weatherlink.com 1.10,2013-12-14 02:42:00,
2013-12-13 21:57:00,14.1,9.0,30.38,NNE,29,22.0,27.0,81,0.00,,,0.00,weatherlink.com 1.10,2013-12-14 02:57:00,
2013-12-13 22:12:00,14.0,10.0,30.38,NE,36,24.0,28.0,82,0.00,,,0.00,weatherlink.com 1.10,2013-12-14 03:12:00,
2013-12-13 22:27:00,13.6,10.0,30.38,NE,37,26.0,28.0,84,0.00,,,0.00,weatherlink.com 1.10,2013-12-14 03:27:00,
2013-12-13 22:42:00,13.4,9.0,30.39,NE,37,24.0,26.0,84,0.00,,,0.00,weatherlink.com 1.10,2013-12-14 03:42:00,
2013-12-13 22:57:00,13.6,10.0,30.39,NE,41,19.0,25.0,85,0.00,,,0.00,weatherlink.com 1.10,2013-12-14 03:57:00,
2013-12-13 23:12:00,13.4,10.0,30.39,NE,44,19.0,23.0,85,0.00,,,0.00,weatherlink.com 1.10,2013-12-14 04:12:00,
2013-12-13 23:27:00,13.5,10.0,30.39,NE,40,21.0,23.0,85,0.00,,,0.00,weatherlink.com 1.10,2013-12-14 04:27:00,
2013-12-13 23:43:00,13.6,10.0,30.39,NE,34,22.0,23.0,85,0.00,,,0.00,weatherlink.com 1.10,2013-12-14 04:43:00,
2013-12-13 23:58:00,13.5,10.0,30.38,NE,44,20.0,24.0,86,0.00,,,0.00,weatherlink.com 1.10,2013-12-14 04:58:00,